Miscellaneous Local Product
Issued by NWS Hastings, NE

Home | Current Version | Previous Version | Graphics & Text | Print | Product List | Glossary On
Versions: 1 2 3 4 5 6 7 8 9 10 11 12 13 14 15 16 17 18 19 20 21 22 23 24 25 26 27 28 29 30 31 32 33 34 35 36 37 38 39 40 41 42 43 44 45 46 47 48 49 50
000
AXUS43 KGID 191202
MISGRI

GID CWA HOURLY WEATHER ROUNDUP
NATIONAL WEATHER SERVICE HASTINGS NE
600 AM CST MON FEB 19 2018

NOTE: "FAIR" INDICATES FEW OR NO CLOUDS BELOW 12,000 FEET WITH NO
SIGNIFICANT WEATHER AND/OR OBSTRUCTIONS TO VISIBILITY.

...SOUTH CENTRAL NEBRASKA...

CITY           SKY/WX    TMP DP  RH WIND       PRES   REMARKS
GRAND ISLAND   FLURRIES  17  14  88 N23G36    29.79R WCI  -1
KEARNEY        FLURRIES  15  12  88 MISG      29.80R
HASTINGS       FRZ RAIN  17  14  88 N25G37    29.78R FOG     WCI  -1
ORD            LGT SNOW  14  10  84 N21G36    29.81R FOG     WCI  -4
YORK           CLEAR     19  19 100 N24G39    29.75R WCI   2
AURORA         CLOUDY    18  15  87 N22       29.77R WCI   1
LEXINGTON      FLURRIES  17  12  82 N15       29.81R WCI   2
HOLDREGE       CLOUDY    17  15  92 N23G29    29.79R WCI  -1
HEBRON         CLOUDY    24  22  92 N20G26    29.73R FOG     WCI  10

...NEBRASKA PANHANDLE...

CITY           SKY/WX    TMP DP  RH WIND       PRES   REMARKS
CHADRON        LGT SNOW   3  -1  83 NE15G21   29.93F FOG     WCI -16
ALLIANCE       CLOUDY     5   2  87 N15       29.82S WCI -13
SCOTTSBLUFF    LGT SNOW   7   1  76 N16       29.83S WCI -11
SIDNEY         LGT SNOW   8   5  87 N16G23    29.77R FOG     WCI -10

...WESTERN AND NORTH CENTRAL NEBRASKA...

CITY           SKY/WX    TMP DP  RH WIND       PRES   REMARKS
VALENTINE      FLURRIES   9   2  73 N18       29.94R WCI -10
AINSWORTH      LGT SNOW   9   6  88 N25G31    29.88F WCI -12
ONEILL         LGT SNOW  12   9  89 N22       29.87R WCI  -7
BROKEN BOW     FLURRIES  13   8  81 N24G35    29.80S WCI  -7
IMPERIAL       FLURRIES  13   9  84 N21G28    29.79R WCI  -5
NORTH PLATTE   LGT SNOW  13   7  77 N16G22    29.82S WCI  -3
MCCOOK         FLURRIES  16  12  84 N16       29.81R WCI   1

...EASTERN NEBRASKA...

CITY           SKY/WX    TMP DP  RH WIND       PRES   REMARKS
NORFOLK        FRZ RAIN  18  16  92 N18G24    29.79R WCI   2
SO SIOUX CITY  MIX PCPN  21  18  88 N20G32    29.79R FOG     WCI   6
TEKAMAH        MIX PCPN  24  22  91 N26G39    29.74S FOG     WCI   8
COLUMBUS       MIX PCPN  20  18  92 N21G26    29.78R WCI   4
ALBION         LGT SNOW  16  12  84 N18G28    29.80R WCI  -1
OMAHA EPPLEY   FRZ RAIN  29  27  92 N23G32    29.69R FOG     WCI  15
OFFUTT AFB     FRZ RAIN  30  29  93 N14G22    29.67R WCI  20
MILLARD        CLOUDY    28  26  91 NW14G25   29.70R WCI  17
LINCOLN        FLURRIES  25  22  88 N25G35    29.74R WCI   9
NEBRASKA CITY  MIX PCPN  32  32 100 N17       29.64R WCI  21
BEATRICE       CLOUDY    29  27  94 N26       29.71R FOG     WCI  14
FALLS CITY     CLOUDY    38  38 100 NW18      29.60R FOG     WCI  28

...NORTHERN KANSAS...

CITY           SKY/WX    TMP DP  RH WIND       PRES   REMARKS
GOODLAND       CLOUDY    14  11  87 N16G28    29.74R WCI  -2
HILL CITY      CLOUDY    21  19  92 N23G32    29.78S WCI   5
NORTON         CLOUDY    18  12  79 N21G26    29.77S WCI   1
PHILLIPSBURG   CLOUDY    21  18  86 N17G24    29.80R WCI   7
SMITH CENTER   CLOUDY    19  18  93 N15G30    29.79R WCI   5
BELOIT         CLOUDY    25  23  93 N17       29.76R FOG     WCI  11
HAYS           CLOUDY    24  20  84 N22G30    29.77R WCI   9
RUSSELL        CLOUDY    26  24  92 N25G35    29.74R WCI  11
CONCORDIA      CLOUDY    26  24  92 N20G30    29.73R FOG     WCI  12
SALINA         CLOUDY    34  29  82 N25G31    29.70R WCI  21
TOPEKA         CLOUDY    63  60  90 S8        29.60R



USA.gov is the U.S. government's official web portal to all federal, state and local government web resources and services.